User: anonymous   Login
Location: Unspecified
(0.0000°N, 0.0000°E)
Time: 06:49:34
(UTC+00:00)
Language:

STARLINK-6252 - Orbit

View from above orbital plane
View from above orbital plane
View from above satellite
View from above satellite

Ground track
Ground track

The orbit is defined by the following mean orbital elements,

1 56555U          26145.37359681 +.00000000 +00000-0 -40464-5 0 00003
2 56555  43.0000 150.1920 0001693 272.4543  87.6115 15.27575405    08
Epoch (UTC): 25 May 2026 08:57:58
Eccentricity: 0.0001693
inclination: 43.0000°
perigee height: 482 km
apogee height: 484 km
right ascension of ascending node: 150.1920°
argument of perigee: 272.4543°
revolutions per day: 15.27575405
mean anomaly at epoch: 87.6115°

The dashed part of the orbit path shows where the satellite is in the earth's shadow,  

DLR